User: anonymous   Login
Location: Zagreb
(45.8000°N, 16.0000°E)
Time: 00:28:59
(UTC+01:00)
Language:

BEESAT 2 - Orbit

View from above orbital plane
View from above orbital plane
View from above satellite
View from above satellite

Ground track
Ground track

The orbit data is extracted from the following two-line orbital elements,

1 39136U 13015G   20304.17410721 +.00001812 +00000-0 +97584-4 0  9993
2 39136 064.8772 231.7049 0034975 266.0106 093.7022 15.17876352415562
Epoch (UTC): 30 October 2020 04:10:42
Eccentricity: 0.0034975
inclination: 64.8772°
perigee height: 488 km
apogee height: 536 km
right ascension of ascending node: 231.7049°
argument of perigee: 266.0106°
revolutions per day: 15.17876352
mean anomaly at epoch: 93.7022°
orbit number at epoch: 41556

The dashed part of the orbit path shows where the satellite is in the earth's shadow,  

DLR